{"data":{"norad_id":59631,"epoch":"2026-09-20T23:38:02.628096Z","epoch_age_seconds":126234,"freshness":"FRESH","line1":"1 59631U 24082A   26263.98475264 -.00002590  00000+0 -84637-4 0  9993","line2":"2 59631  43.0042 116.5555 0001105 269.7175  90.3550 15.27572003134889","mean_motion":15.27572003,"eccentricity":0.0001105,"inclination_deg":43.0042,"raan_deg":116.5555,"arg_perigee_deg":269.7175,"mean_anomaly_deg":90.355,"bstar":-8.4637e-5,"rev_number":13488,"period_min":94.26724220999,"perigee_km":482.31487832938,"apogee_km":483.83120574867,"semimajor_km":6861.210042039,"source":"CELESTRAK","updated_at":"2026-09-22T09:00:49.016130Z"}}